Location: ?????????
(41.2286°N, 23.0068°E)
Time: 08:32:32
(UTC+00:00)

Iridium 4 Rocket - Pass Details

Date: 08 November 2025
Orbit: 579 x 888 km, 86.9° (Epoch: 04 December)

Event Time Altitude Azimuth Distance (km) Brightness Sun altitude
Rises 04:27:11 0° 344° (NNW) 2,915 6.2 -8.1°
Reaches altitude 10° 04:29:46 10° 331° (NNW) 1,965 5.2 -7.6°
Maximum altitude 04:33:10 23° 278° (W) 1,261 4.1 -7.0°
Drops below altitude 10° 04:36:27 10° 225° (SW) 1,894 5.3 -6.4°
Sets 04:38:55 0° 211° (SSW) 2,782 6.3 -5.9°
